Overview Statistics Trail Chart Weather Telemetry Raw packets
 

This is the latest recevied weather packets stored in our database for station/object K1RFS. If no packets are shown the sender has not sent any weather packets the latest 10 day(s).

<< 69 70 71 72 73 74 75 >>
Time Temp. Humidity Pressure Rain* Wind** Luminosity Snow
1788198732 23.89° C 47% 1004.2 hPa 0 mm - 134 W/m² -
1788198431 23.89° C 47% 1004.2 hPa 0 mm - 158 W/m² -
1788198127 23.89° C 47% 1004.1 hPa 0 mm - 176 W/m² -
1788197826 23.89° C 47% 1004.1 hPa 0 mm - 187 W/m² -
1788197521 23.89° C 47% 1004.2 hPa 0 mm - 191 W/m² -
1788197221 23.89° C 48% 1004.2 hPa 0 mm - 199 W/m² -
1788196917 23.33° C 49% 1004.2 hPa 0 mm - 175 W/m² -
1788196617 23.33° C 50% 1004.2 hPa 0 mm - 157 W/m² -
1788196314 23.89° C 50% 1004.4 hPa 0 mm - 156 W/m² -
1788196010 23.89° C 49% 1004.2 hPa 0 mm - 170 W/m² -
1788195707 23.89° C 49% 1004.2 hPa 0 mm - 147 W/m² -
1788195403 23.33° C 49% 1004.2 hPa 0 mm - 135 W/m² -
1788195099 23.33° C 50% 1004.1 hPa 0 mm - 154 W/m² -
1788194795 23.33° C 48% 1004.2 hPa 0 mm - 142 W/m² -
1788194490 23.33° C 50% 1004 hPa 0 mm - 111 W/m² -
1788194186 23.89° C 49% 1004.2 hPa 0 mm - 123 W/m² -
1788193881 23.89° C 49% 1003.9 hPa 0 mm - 133 W/m² -
1788193592 23.89° C 48% 1004.2 hPa 0 mm - 137 W/m² -
1788193278 24.44° C 49% 1004 hPa 0 mm - 139 W/m² -
1788192974 24.44° C 45% 1003.7 hPa 0 mm - 99 W/m² -
1788192670 24.44° C 44% 1003.9 hPa 0 mm - 75 W/m² -
1788192369 23.89° C 44% 1003.8 hPa 0 mm - 69 W/m² -
1788192065 23.89° C 44% 1003.8 hPa 0 mm - 46 W/m² -
1788191765 23.33° C 46% 1003.7 hPa 0 mm - 39 W/m² -
1788191460 23.33° C 46% 1003.8 hPa 0 mm - 36 W/m² -

* Rain latest hour (hover to see other rain measurements)
** Current wind speed in m/s (hover to see current wind gust speed)